Regional Weather Roundup
Issued by NWS

Home | Current Version | Previous Version | Text Only | Print | Product List | Glossary On
Versions: 1 2 3 4 5 6 7 8 9 10 11 12 13 14 15 16 17 18 19 20 21 22 23 24 25 26 27 28 29 30 31 32 33 34 35 36 37 38 39 40 41 42 43 44 45 46 47 48 49 50
482
ASUS42 KKEY 232010
RWRKEY

FLORIDA REGIONAL WEATHER ROUNDUP FOR THE FLORIDA KEYS
NATIONAL WEATHER SERVICE KEY WEST FLORIDA
300 PM EST MON JAN 23 2017

...SOUTH FLORIDA AND THE KEYS...

CITY           SKY/WX    TMP DP  RH WIND       PRES   REMARKS
FORT MYERS     MOSUNNY   72  60  66 NW21G30   29.62S
SW REGIONAL AP PTSUNNY   72  61  68 W10G24    29.62F
NAPLES         CLOUDY    73  60  63 W23G30    29.65R
MIAMI          MOSUNNY   79  54  41 W17G29    29.60F
WEST KENDALL   MOSUNNY   77  55  46 W31G38    29.61F
HOMESTEAD      SUNNY     75  61  62 W23G33    29.61F
MARATHON       LGT RAIN  75  64  68 W22G33    29.69S
BOCA CHICA NAS MOSUNNY   76  60  57 W29G40    29.71R
KEY WEST INTL  MOSUNNY   76  61  59 W24G40    29.71R

...INTERNATIONAL WEATHER...

CITY           SKY/WX    TMP DP  RH WIND       PRES   REMARKS
NASSAU BAHAMAS NOT AVBL
CANCUN MEXICO  MOSUNNY   81  59  47 W20G31    29.88F
COZUMEL MEXICO SUNNY     82  59  44 N21       29.86F

ADJACENT COASTAL WATERS...

STATION/POSITION TIME  SKY/WX   TEMP    WIND        PRES    WAVE
                                AIR SEA DIR/SP/G            HT/PER
                 (UTC)          (F)     (DEG/KT/KT) (MB)    (FT/S)
PULASKI SHOAL LI 2000            73     310/ 26/ 30 1006.1R
SAND KEY         1950            74     300/ 31/ 37 1006.6R
LONG KEY         1900            72 74  290/ 23/ 26 1005.1F
MOLASSES REEF    1900            72 74  290/ 24/ 28 1003.8S
FOWEY ROCKS      1900            74 74  270/ 33/ 36 1003.1F

$$




USA.gov is the U.S. government's official web portal to all federal, state and local government web resources and services.